SHT22A EGLL-EGJB

Flight info

Callsign SHT22A
Flight time 0h 34m
Altitude 22000
Route GASGU N514 EVTES/N0389F210 N621 SAM/N0384F200 N63 LELNA
Aircraft A320/M-SDE3FGHIRWY/LB1

Departure

Time 2026-05-08 12:32
Airport London Heathrow Airport (EGLL)

Arrival

Time 2026-05-08 13:06
Airport Guernsey Airport (EGJB)
Time Latitude Longitude Altitude Speed Heading
2026-05-08 12:06 51.47049 -0.48584 90 ft 0 kts 269°
2026-05-08 12:23 51.47049 -0.48559 87 ft 4 kts 269°
2026-05-08 12:24 51.47049 -0.48516 90 ft 3 kts 269°
2026-05-08 12:24 51.47050 -0.48485 89 ft 4 kts 231°
2026-05-08 12:24 51.47069 -0.48471 90 ft 3 kts 179°
2026-05-08 12:24 51.47088 -0.48472 88 ft 0 kts 179°
2026-05-08 12:27 51.47077 -0.48472 90 ft 3 kts 180°
2026-05-08 12:27 51.47052 -0.48471 87 ft 6 kts 179°
2026-05-08 12:27 51.46997 -0.48471 88 ft 8 kts 180°
2026-05-08 12:27 51.46941 -0.48470 88 ft 8 kts 180°
2026-05-08 12:28 51.46886 -0.48470 88 ft 8 kts 180°
2026-05-08 12:28 51.46832 -0.48469 86 ft 8 kts 179°
2026-05-08 12:28 51.46777 -0.48471 86 ft 7 kts 190°
2026-05-08 12:28 51.46744 -0.48526 88 ft 9 kts 253°
2026-05-08 12:29 51.46741 -0.48649 86 ft 10 kts 269°
2026-05-08 12:29 51.46717 -0.48738 89 ft 8 kts 213°
2026-05-08 12:29 51.46664 -0.48748 86 ft 7 kts 180°
2026-05-08 12:29 51.46605 -0.48764 90 ft 10 kts 196°
2026-05-08 12:30 51.46543 -0.48788 86 ft 9 kts 180°
2026-05-08 12:30 51.46507 -0.48769 88 ft 8 kts 150°
2026-05-08 12:30 51.46478 -0.48673 87 ft 7 kts 92°
2026-05-08 12:30 51.46478 -0.48657 86 ft 0 kts 90°
2026-05-08 12:31 51.46479 -0.48542 86 ft 40 kts 90°
2026-05-08 12:32 51.46480 -0.48067 87 ft 85 kts 90°
2026-05-08 12:32 51.46484 -0.46821 92 ft 136 kts 90°
2026-05-08 12:32 51.46503 -0.45172 522 ft 148 kts 90°
2026-05-08 12:32 51.46527 -0.43521 1320 ft 148 kts 91°
2026-05-08 12:33 51.46484 -0.41774 1790 ft 165 kts 107°
2026-05-08 12:33 51.45901 -0.40096 2158 ft 187 kts 124°
2026-05-08 12:33 51.45103 -0.38272 2548 ft 212 kts 126°
2026-05-08 12:33 51.44196 -0.36243 3076 ft 236 kts 126°
2026-05-08 12:34 51.43077 -0.34233 3865 ft 247 kts 143°
2026-05-08 12:34 51.41528 -0.32997 4813 ft 253 kts 166°
2026-05-08 12:34 51.39768 -0.32834 5771 ft 257 kts 189°
2026-05-08 12:34 51.38086 -0.33830 6703 ft 262 kts 212°
2026-05-08 12:35 51.36684 -0.35728 7638 ft 266 kts 221°
2026-05-08 12:35 51.35313 -0.37731 8607 ft 268 kts 221°
2026-05-08 12:35 51.33934 -0.39752 9562 ft 271 kts 221°
2026-05-08 12:35 51.32526 -0.41804 10376 ft 278 kts 222°
2026-05-08 12:36 51.31186 -0.44220 10702 ft 303 kts 233°
2026-05-08 12:36 51.30108 -0.47259 10995 ft 326 kts 246°
2026-05-08 12:36 51.29372 -0.50695 11941 ft 320 kts 251°
2026-05-08 12:36 51.28767 -0.54001 13435 ft 303 kts 253°
2026-05-08 12:37 51.28196 -0.57239 14303 ft 308 kts 252°
2026-05-08 12:37 51.27577 -0.60636 14470 ft 331 kts 252°
2026-05-08 12:37 51.26890 -0.64258 14732 ft 348 kts 252°
2026-05-08 12:37 51.26174 -0.67943 15304 ft 354 kts 251°
2026-05-08 12:38 51.25435 -0.71716 15938 ft 359 kts 251°
2026-05-08 12:38 51.24686 -0.75528 16554 ft 363 kts 251°
2026-05-08 12:38 51.23925 -0.79407 17166 ft 367 kts 251°
2026-05-08 12:38 51.23158 -0.83308 17818 ft 371 kts 251°
2026-05-08 12:39 51.22382 -0.87250 18469 ft 374 kts 251°
2026-05-08 12:39 51.21596 -0.91234 19021 ft 378 kts 252°
2026-05-08 12:39 51.20661 -0.95181 19595 ft 381 kts 244°
2026-05-08 12:39 51.19300 -0.98813 20259 ft 383 kts 234°
2026-05-08 12:40 51.17666 -1.02179 20888 ft 386 kts 233°
2026-05-08 12:40 51.16009 -1.05572 21408 ft 390 kts 233°
2026-05-08 12:40 51.14338 -1.08995 21898 ft 394 kts 234°
2026-05-08 12:40 51.12645 -1.12454 22058 ft 398 kts 233°
2026-05-08 12:41 51.10915 -1.15992 22081 ft 413 kts 233°
2026-05-08 12:41 51.09087 -1.19575 22084 ft 420 kts 229°
2026-05-08 12:41 51.06933 -1.22737 22082 ft 423 kts 219°
2026-05-08 12:41 51.04486 -1.25367 22082 ft 425 kts 214°
2026-05-08 12:42 51.02024 -1.27867 22082 ft 426 kts 214°
2026-05-08 12:42 50.99532 -1.30404 22082 ft 425 kts 214°
2026-05-08 12:42 50.97041 -1.32943 22084 ft 426 kts 214°
2026-05-08 12:42 50.94485 -1.35331 22084 ft 427 kts 209°
2026-05-08 12:43 50.91834 -1.37454 22083 ft 427 kts 208°
2026-05-08 12:43 50.89183 -1.39576 22084 ft 427 kts 208°
2026-05-08 12:43 50.86533 -1.41699 22078 ft 427 kts 208°
2026-05-08 12:43 50.83883 -1.43815 22083 ft 426 kts 208°
2026-05-08 12:44 50.81228 -1.45926 22088 ft 426 kts 208°
2026-05-08 12:44 50.78580 -1.48025 22089 ft 426 kts 208°
2026-05-08 12:44 50.75933 -1.50121 22088 ft 425 kts 208°
2026-05-08 12:44 50.73288 -1.52217 22071 ft 425 kts 208°
2026-05-08 12:45 50.70678 -1.54282 22069 ft 425 kts 208°
2026-05-08 12:45 50.68029 -1.56378 22070 ft 425 kts 208°
2026-05-08 12:45 50.65384 -1.58465 22070 ft 425 kts 208°
2026-05-08 12:45 50.62740 -1.60550 22065 ft 425 kts 208°
2026-05-08 12:46 50.60096 -1.62635 22070 ft 425 kts 208°
2026-05-08 12:46 50.57451 -1.64717 22067 ft 425 kts 208°
2026-05-08 12:46 50.54805 -1.66798 22074 ft 425 kts 208°
2026-05-08 12:46 50.52158 -1.68875 22070 ft 425 kts 208°
2026-05-08 12:47 50.49505 -1.70956 22068 ft 425 kts 208°
2026-05-08 12:47 50.46857 -1.73030 22066 ft 425 kts 208°
2026-05-08 12:47 50.44244 -1.75072 22071 ft 425 kts 208°
2026-05-08 12:47 50.41594 -1.77137 22072 ft 425 kts 208°
2026-05-08 12:48 50.38946 -1.79203 22061 ft 425 kts 208°
2026-05-08 12:48 50.36292 -1.81273 22064 ft 425 kts 208°
2026-05-08 12:48 50.33650 -1.83332 22070 ft 425 kts 208°
2026-05-08 12:48 50.31001 -1.85391 22064 ft 425 kts 208°
2026-05-08 12:49 50.28353 -1.87444 22078 ft 424 kts 207°
2026-05-08 12:49 50.25708 -1.89493 22076 ft 424 kts 207°
2026-05-08 12:49 50.23067 -1.91542 22078 ft 424 kts 208°
2026-05-08 12:49 50.20429 -1.93590 22076 ft 423 kts 208°
2026-05-08 12:50 50.17791 -1.95632 22074 ft 423 kts 207°
2026-05-08 12:50 50.15153 -1.97667 22057 ft 423 kts 208°
2026-05-08 12:50 50.12581 -1.99646 21869 ft 410 kts 207°
2026-05-08 12:50 50.10059 -2.01582 21487 ft 399 kts 207°
2026-05-08 12:51 50.07585 -2.03482 20956 ft 394 kts 207°
2026-05-08 12:51 50.02726 -2.07208 20096 ft 384 kts 207°
2026-05-08 12:51 50.00334 -2.09053 20043 ft 384 kts 209°
2026-05-08 12:52 49.98104 -2.11340 20054 ft 385 kts 220°
2026-05-08 12:52 49.94436 -2.17346 19946 ft 381 kts 229°
2026-05-08 12:52 49.92686 -2.20418 19365 ft 379 kts 229°
2026-05-08 12:53 49.90943 -2.23460 18835 ft 376 kts 228°
2026-05-08 12:53 49.89211 -2.26474 18299 ft 373 kts 228°
2026-05-08 12:53 49.87488 -2.29459 17664 ft 370 kts 228°
2026-05-08 12:53 49.85776 -2.32423 17057 ft 367 kts 228°
2026-05-08 12:54 49.84083 -2.35361 16455 ft 364 kts 228°
2026-05-08 12:54 49.82432 -2.38233 15897 ft 360 kts 228°
2026-05-08 12:54 49.80774 -2.41117 15323 ft 357 kts 228°
2026-05-08 12:54 49.79127 -2.43975 14765 ft 354 kts 227°
2026-05-08 12:55 49.77496 -2.46807 14233 ft 351 kts 227°
2026-05-08 12:55 49.75875 -2.49611 13671 ft 348 kts 227°
2026-05-08 12:55 49.74263 -2.52394 13083 ft 345 kts 227°
2026-05-08 12:55 49.72694 -2.55099 12920 ft 330 kts 227°
2026-05-08 12:56 49.71186 -2.57690 12771 ft 317 kts 227°
2026-05-08 12:56 49.69751 -2.60165 12293 ft 316 kts 227°
2026-05-08 12:56 49.68244 -2.62791 11301 ft 330 kts 227°
2026-05-08 12:56 49.66738 -2.65427 10852 ft 327 kts 227°
2026-05-08 12:57 49.65270 -2.68006 10720 ft 313 kts 227°
2026-05-08 12:57 49.63860 -2.70487 10607 ft 302 kts 227°
2026-05-08 12:57 49.62505 -2.72890 10474 ft 291 kts 227°
2026-05-08 12:57 49.61210 -2.75197 10112 ft 280 kts 227°
2026-05-08 12:58 49.59943 -2.77459 9496 ft 277 kts 227°
2026-05-08 12:58 49.58686 -2.79700 8843 ft 275 kts 227°
2026-05-08 12:58 49.57433 -2.81929 8208 ft 274 kts 227°
2026-05-08 12:58 49.56191 -2.84130 7595 ft 272 kts 227°
2026-05-08 12:59 49.54953 -2.86326 7037 ft 273 kts 227°
2026-05-08 12:59 49.53723 -2.88504 6719 ft 271 kts 226°
2026-05-08 12:59 49.52310 -2.90325 6507 ft 257 kts 212°
2026-05-08 12:59 49.50862 -2.91758 6381 ft 238 kts 211°
2026-05-08 13:00 49.49510 -2.93065 6241 ft 221 kts 210°
2026-05-08 13:00 49.48238 -2.94291 5941 ft 212 kts 210°
2026-05-08 13:00 49.46907 -2.95164 5528 ft 207 kts 193°
2026-05-08 13:00 49.45514 -2.95681 5110 ft 205 kts 191°
2026-05-08 13:01 49.44175 -2.96099 4895 ft 194 kts 183°
2026-05-08 13:01 49.42954 -2.95506 4592 ft 186 kts 134°
2026-05-08 13:01 49.42491 -2.93708 4407 ft 188 kts 90°
2026-05-08 13:01 49.42591 -2.91687 4181 ft 190 kts 90°
2026-05-08 13:02 49.42644 -2.89666 3934 ft 190 kts 90°
2026-05-08 13:02 49.42700 -2.87635 3678 ft 190 kts 90°
2026-05-08 13:02 49.42760 -2.85611 3425 ft 190 kts 89°
2026-05-08 13:02 49.42820 -2.83593 3172 ft 190 kts 89°
2026-05-08 13:03 49.42880 -2.81571 2915 ft 189 kts 89°
2026-05-08 13:03 49.42940 -2.79558 2680 ft 187 kts 89°
2026-05-08 13:03 49.42998 -2.77598 2419 ft 180 kts 89°
2026-05-08 13:03 49.43053 -2.75710 2174 ft 174 kts 89°
2026-05-08 13:04 49.43105 -2.73932 1938 ft 159 kts 89°
2026-05-08 13:04 49.43152 -2.72320 1743 ft 144 kts 89°
2026-05-08 13:04 49.43194 -2.70876 1560 ft 133 kts 89°
2026-05-08 13:04 49.43234 -2.69475 1373 ft 129 kts 89°
2026-05-08 13:05 49.43273 -2.68106 1205 ft 128 kts 88°
2026-05-08 13:05 49.43312 -2.66733 1039 ft 129 kts 88°
2026-05-08 13:05 49.43350 -2.65359 849 ft 128 kts 87°
2026-05-08 13:05 49.43389 -2.64000 679 ft 127 kts 88°
2026-05-08 13:06 49.43427 -2.62643 505 ft 126 kts 86°
2026-05-08 13:06 49.43465 -2.61296 334 ft 126 kts 87°
2026-05-08 13:06 49.43499 -2.60157 314 ft 68 kts 88°
2026-05-08 13:06 49.43513 -2.59645 328 ft 41 kts 88°
2026-05-08 13:07 49.43522 -2.59322 335 ft 18 kts 88°
2026-05-08 13:07 49.43500 -2.59203 332 ft 12 kts 143°
2026-05-08 13:07 49.43436 -2.59196 332 ft 7 kts 165°
2026-05-08 13:07 49.43401 -2.59191 332 ft 6 kts 185°
2026-05-08 13:08 49.43374 -2.59237 333 ft 7 kts 258°
2026-05-08 13:08 49.43371 -2.59323 334 ft 10 kts 268°
2026-05-08 13:08 49.43367 -2.59446 329 ft 13 kts 268°
2026-05-08 13:08 49.43363 -2.59574 328 ft 12 kts 267°
2026-05-08 13:09 49.43332 -2.59625 328 ft 9 kts 181°
2026-05-08 13:09 49.43285 -2.59622 329 ft 6 kts 179°
2026-05-08 13:09 49.43260 -2.59621 328 ft 2 kts 178°
2026-05-08 13:09 49.43254 -2.59621 328 ft 0 kts 178°